COSMOS 1933

Last updated on Mon Sep 21 2026 00:02:08 GMT+0000 (Coordinated Universal Time)

1 18958U 88020A 26263.49083328 .00002420 00000+0 11346-3 0 9990 2 18958 82.5112 57.9985 0002847 228.6894 131.4095 15.19231176 79796
UTC large
Height (km)
Speed (km/s)
/
Latitude / Longitude
Inclination (degrees)
Orbital Period (minutes)
Azimuth
Elevation
Range (km)
Doppler Factor

Next 0 passes for location: London (51.5072 / 0.1276)

No passes found over London.
COSMOS 1933